Location: Newark
(19.2128°S, 49.7858°W)
Time: 04:27:55
(UTC+00:00)

Hubble Space Telescope - Visible Passes

Search period start: 22 August 2019 00:00
Search period end: 01 September 2019 00:00
Orbit: 536 x 540 km, 28.5° (Epoch: 21 August)

Date Brightness Start Highest point End Pass type
(mag) Time Alt. Az. Time Alt. Az. Time Alt. Az.
22 Aug 2.8 07:44:06 21° SSE 07:44:06 21° SSE 07:46:05 10° SE visible
23 Aug 3.2 07:34:09 17° SSE 07:34:09 17° SSE 07:35:33 10° SE visible
23 Aug 2.4 09:10:31 10° SW 09:13:56 24° S 09:17:22 10° ESE visible
24 Aug 3.5 07:24:12 14° SE 07:24:12 14° SE 07:25:03 10° SE visible
24 Aug 2.3 08:59:58 10° SW 09:03:31 26° S 09:07:02 10° ESE visible
25 Aug 3.8 07:14:14 12° SE 07:14:14 12° SE 07:14:36 10° SE visible
25 Aug 2.2 08:49:35 11° SW 08:53:05 29° SSE 08:56:44 10° ESE visible
26 Aug 2.0 08:39:38 14° SW 08:42:38 33° SSE 08:46:26 10° E visible
27 Aug 1.8 08:29:43 20° SW 08:32:11 39° SSE 08:36:06 10° E visible
28 Aug 1.4 08:19:51 27° SW 08:21:42 47° SSE 08:25:43 10° E visible
29 Aug 1.1 08:10:01 41° SW 08:11:12 59° SSE 08:15:19 10° E visible
30 Aug 0.7 08:00:15 67° SSW 08:00:42 76° SSE 08:04:51 10° ENE visible
31 Aug 0.8 07:50:32 72° NE 07:50:32 72° NE 07:54:19 10° ENE visible
31 Aug 3.5 23:08:59 10° NNW 23:09:13 11° NNW 23:09:13 11° NNW visible
